SCP
0 0 0 0 0 0 0 0 0 0 0 0 0 0 0 0 0 0 0 0 0 0 0 0 0 0 0 0 0 0 0 0 0 0 0 0 0 0 0 0 0 0 0
0 0 0 0 0 0 0 0 0 0 0 0 0 0 0 0 0 0 0 0 0 0 0 0 0 0 0 0 0 0 0 0 0 0 0 0 0 0 0 0 0 0 0
0 0 0 0 0 0 0 0 0 0 0 0 0 0 0 0 0 0 0 0 0 0 0 0 0 0 0 0 0 0 0 0 0 0 0 0 0 0 0 0 0 0 0
0 0 0 0 0 0 0 0 0 0 0 0 0 0 0 0 0 0 0 0 0 0 0 0 0 0 0 0 0 0 0 0 0 0 0 0 0 0 0 0 0 0 0
0 0 0 0 0 0 0 0 0 0 0 0 0 0 0 0 0 0 0 0 0 0 0 0 0 0 0 0 0 0 0 0 0 0 0 0 0 0 0 0 0 0 0
0 0 0 0 0 0 0 0 0 0 0 0 0 0 0 0 0 0 0 0 0 0 0 0 0 0 0 0 0 0 0 0 0 0 0 0 0 0 0 0 0 0 0
0 0 0 0 0 0 0 0 0 0 0 0 0 0 0 0 0 0 0 0 0 0 0 0 0 0 0 0 0 0 0 0 0 0 0 0 0 0 0 0 0 0 0
0 0 0 0 0 0 0 0 0 0 0 0 0 0 0 0 0 0 0 0 0 0 0 0 0 0 0 0 0 0 0 0 0 0 0 0 0 0 0 0 0 0 0
0 0 0 0 0 0 0 0 0 0 0 0 0 0 0 0 0 0 0 0 0 0 0 0 0 0 0 0 0 0 0 0 0 0 0 0 0 0 0 0 0 0 0
0 0 0 0 0 0 0 0 0 0 0 0 0 0 0 0 0 0 0 0 0 0 0 0 0 0 0 0 0 0 0 0 0 0 0 0 0 0 0 0 0 0 0
0 0 0 0 0 0 0 0 0 0 0 0 0 0 0 0 0 0 0 0 0 0 0 0 0 0 0 0 0 0 0 0 0 0 0 0 0 0 0 0 0 0 0
0 0 0 0 0 0 0 0 0 0 0 0 0 0 0 0 0 0 0 0 0 0 0 0 0 0 0 0 0 0 0 0 0 0 0 0 0 0 0 0 0 0 0
0 0 0 0 0 0 0 0 0 0 0 0 0 0 0 0 0 0 0 0 0 0 0 0 0 0 0 0 0 0 0 0 0 0 0 0 0 0 0 0 0 0 0
0 0 0 0 0 0 0 0 0 0 0 0 0 0 0 0 0 0 0 0 0 0 0 0 0 0 0 0 0 0 0 0 0 0 0 0 0 0 0 0 0 0 0
0 0 0 0 0 0 0 0 0 0 0 0 0 0 0 0 0 0 0 0 0 0 0 0 0 0 0 0 0 0 0 0 0 0 0 0 0 0 0 0 0 0 0
0 0 0 0 0 0 0 0 0 0 0 0 0 0 0 0 0 0 0 0 0 0 0 0 0 0 0 0 0 0 0 0 0 0 0 0 0 0 0 0 0 0 0
0 0 0 0 0 0 0 0 0 0 0 0 0 0 0 0 0 0 0 0 0 0 0 0 0 0 0 0 0 0 0 0 0 0 0 0 0 0 0 0 0 0 0
0 0 0 0 0 0 0 0 0 0 0 0 0 0 0 0 0 0 0 0 0 0 0 0 0 0 0 0 0 0 0 0 0 0 0 0 0 0 0 0 0 0 0
0 0 0 0 0 0 0 0 0 0 0 0 0 0 0 0 0 0 0 0 0 0 0 0 0 0 0 0 0 0 0 0 0 0 0 0 0 0 0 0 0 0 0
0 0 0 0 0 0 0 0 0 0 0 0 0 0 0 0 0 0 0 0 0 0 0 0 0 0 0 0 0 0 0 0 0 0 0 0 0 0 0 0 0 0 0
0 0 0 0 0 0 0 0 0 0 0 0 0 0 0 0 0 0 0 0 0 0 0 0 0 0 0 0 0 0 0 0 0 0 0 0 0 0 0 0 0 0 0
0 0 0 0 0 0 0 0 0 0 0 0 0 0 0 0 0 0 0 0 0 0 0 0 0 0 0 0 0 0 0 0 0 0 0 0 0 0 0 0 0 0 0
0 0 0 0 0 0 0 0 0 0 0 0 0 0 0 0 0 0 0 0 0 0 0 0 0 0 0 0 0 0 0 0 0 0 0 0 0 0 0 0 0 0 0
0 0 0 0 0 0 0 0 0 0 0 0 0 0 0 0 0 0 0 0 0 0 0 0 0 0 0 0 0 0 0 0 0 0 0 0 0 0 0 0 0 0 0
0 0 0 0 0 0 0 0 0 0 0 0 0 0 0 0 0 0 0 0 0 0 0 0 0 0 0 0 0 0 0 0 0 0 0 0 0 0 0 0 0 0 0
0 0 0 0 0 0 0 0 0 0 0 0 0 0 0 0 0 0 0 0 0 0 0 0 0 0 0 0 0 0 0 0 0 0 0 0 0 0 0 0 0 0 0
Wind_Speed
4 3 3 2 2 2 1 2 1 2 1 1 1 2 2 2 3 2 1 1 2 1 2 3 2 2 2 2 2 2 2 2 2 0 1 1 2 1 1 0 1 2 1
5 4 4 3 3 3 2 2 2 2 2 2 1 2 2 2 2 2 2 1 1 2 2 2 2 1 1 1 1 1 1 1 2 1 1 1 1 0 0 0 0 1 1
5 5 4 4 3 3 3 2 2 2 2 1 2 2 2 1 1 1 1 1 1 1 1 1 1 1 1 1 1 1 1 1 1 1 0 0 1 1 1 1 1 1 1
5 4 4 4 3 3 2 2 2 1 1 1 2 2 2 2 1 1 1 1 1 1 1 1 1 2 1 1 1 1 1 1 1 0 0 0 1 1 1 1 1 1 1
6 5 4 4 3 3 3 2 2 1 1 1 2 2 2 2 1 1 1 0 0 0 1 1 2 3 3 2 2 2 2 1 1 1 0 1 1 1 1 1 1 1 2
6 5 4 4 4 3 3 3 2 2 1 1 2 2 2 1 2 2 2 2 1 0 0 1 2 2 2 2 2 2 2 1 0 1 1 0 1 1 1 1 1 1 3
7 6 5 4 4 4 3 3 3 3 2 1 1 2 2 2 2 1 0 1 1 1 1 0 0 1 2 1 1 1 1 1 1 1 1 2 2 2 1 2 2 1 3
6 6 5 5 4 4 4 3 3 3 2 2 2 2 2 2 3 2 1 1 1 1 1 1 0 1 1 1 1 1 1 1 2 1 2 2 2 2 1 2 3 3 3
6 6 6 5 5 5 4 4 3 3 2 3 2 3 3 3 4 3 2 1 1 1 1 1 1 1 1 2 1 1 1 2 3 3 4 3 4 4 2 1 2 2 3
6 5 5 5 5 5 5 4 3 3 3 3 2 3 3 3 4 5 4 1 2 2 1 1 1 1 1 1 0 1 2 3 2 3 3 4 4 4 5 3 2 2 2
6 5 5 5 5 5 4 3 3 3 3 3 3 3 3 3 5 6 6 2 2 2 1 1 1 2 2 2 2 2 4 4 3 3 3 3 3 2 3 3 3 3 3
5 5 5 5 5 5 4 4 3 3 3 3 2 2 2 3 4 5 7 5 3 1 2 1 1 2 3 4 3 5 6 6 3 2 3 3 3 3 3 3 4 4 5
6 5 5 5 4 4 4 4 3 3 3 2 2 2 2 2 3 5 6 6 5 2 1 1 1 2 3 3 5 6 5 3 2 3 3 4 3 3 3 2 3 4 4
6 5 4 5 4 3 3 3 3 2 2 2 2 2 1 1 1 1 2 2 3 3 2 2 3 4 4 4 4 4 3 3 3 4 4 4 3 2 3 2 3 3 3
5 5 4 4 4 3 2 2 2 2 3 3 2 2 2 2 2 3 3 2 2 2 2 1 1 2 2 3 3 3 2 2 3 3 3 3 3 3 3 3 2 2 3
4 4 3 3 3 3 3 2 2 1 2 3 3 3 1 2 3 3 3 3 2 2 1 1 2 2 3 3 2 2 2 2 2 2 3 3 3 3 3 3 2 3 4
3 3 3 3 3 3 3 3 2 1 2 1 2 2 3 3 3 3 3 2 2 2 1 2 2 2 2 2 2 2 3 3 2 2 3 3 3 3 4 4 3 3 4
2 3 3 3 3 3 3 3 3 3 2 1 1 2 3 4 3 3 2 2 1 1 2 2 2 2 2 2 2 2 2 2 2 2 3 3 3 3 4 4 4 4 5
2 2 2 2 2 2 3 3 2 3 2 2 1 1 3 3 2 2 2 1 2 2 2 2 2 2 2 2 2 2 2 2 3 3 3 3 3 4 4 4 5 7 6
2 3 3 2 2 2 2 2 2 2 2 2 2 2 2 2 1 1 2 2 2 2 2 2 2 2 2 2 2 2 2 2 3 3 3 3 3 4 5 6 5 5 5
2 2 3 2 1 2 1 1 2 1 1 1 1 2 3 2 2 3 3 3 2 2 2 2 2 1 1 1 1 2 3 3 3 3 3 4 4 4 5 5 5 5 6
2 2 1 1 1 1 1 1 1 1 2 1 1 1 3 2 2 2 2 2 3 2 2 1 1 1 1 1 1 2 3 3 3 3 3 4 4 4 5 5 5 5 6
2 2 2 1 1 2 1 1 1 1 1 1 1 1 2 2 2 2 2 1 1 1 1 1 1 1 1 1 1 1 2 3 3 3 4 4 4 5 5 6 7 8 8
2 2 2 2 1 1 1 1 1 1 1 1 1 1 1 1 1 1 1 0 0 1 1 0 1 1 2 1 1 1 1 2 3 3 5 5 6 6 6 6 7 9 8
1 1 1 1 1 1 1 0 0 0 0 0 0 0 0 0 0 0 1 1 1 1 1 1 1 1 1 2 2 2 3 5 5 5 4 5 6 7 7 8 8 8 9
1 1 1 1 1 1 1 0 0 0 0 1 1 1 1 0 0 1 1 1 1 1 1 1 2 2 2 1 2 2 4 5 6 7 6 5 6 7 7 7 9 9 9
Wind_Direction
170 157 143 149 145 149 150 133 130 121 151 156 136 132 126 126 124 114 109 89 102 104 101 99 89 69 45 32 36 44 44 80 115 325 35 89 86 66 60 175 158 145 100
169 157 158 160 159 166 166 165 173 160 166 170 148 119 116 113 120 132 138 117 97 78 68 85 92 90 77 45 39 51 57 86 120 129 338 22 53 98 41 321 0 121 151
165 164 161 157 167 180 170 172 183 164 173 169 133 119 119 109 104 111 124 129 116 103 85 74 68 82 84 73 70 43 28 41 94 137 217 347 352 350 11 341 345 325 287
161 161 161 165 170 173 163 166 179 172 160 147 126 122 114 104 90 80 84 82 92 105 104 93 69 73 65 49 56 18 27 23 14 74 129 331 318 311 40 335 325 307 298
161 166 172 169 161 161 156 162 172 163 151 144 122 113 107 103 66 44 22 59 83 147 147 125 110 102 87 76 64 29 28 26 2 13 350 356 333 354 316 283 293 297 298
164 171 170 164 159 163 158 155 157 147 147 139 135 130 126 104 84 68 38 346 322 287 205 155 144 126 126 116 100 81 70 79 26 8 332 294 289 292 300 314 319 337 309
165 166 165 164 162 158 155 158 163 156 145 137 135 133 138 132 123 114 54 335 320 317 318 292 209 137 133 150 190 213 281 300 229 201 234 258 267 284 312 320 305 284 260
164 165 164 162 161 157 161 169 169 165 170 174 175 172 157 150 151 148 176 264 310 326 313 286 151 96 81 101 141 206 224 255 247 228 225 253 264 272 262 263 262 278 282
164 167 169 166 163 163 169 173 170 175 183 180 186 187 178 177 176 172 164 219 265 283 310 350 54 97 36 56 42 312 296 279 259 243 234 252 270 283 286 321 313 306 294
163 166 164 161 162 167 171 173 170 180 191 182 192 194 189 185 178 175 175 190 237 245 245 230 95 107 94 64 349 301 289 284 289 287 282 280 271 268 264 235 228 253 278
158 157 154 155 161 163 167 172 170 176 183 190 200 200 196 187 180 178 178 194 228 242 240 223 211 189 197 239 259 250 269 290 288 282 279 273 267 258 253 247 232 221 242
148 149 155 157 162 165 164 170 169 172 182 197 204 204 200 189 184 189 192 208 230 238 252 232 220 209 238 254 256 271 286 296 291 287 282 280 274 266 254 245 243 241 237
146 151 156 154 152 151 156 164 169 174 178 193 200 208 206 192 183 189 197 216 236 242 242 229 273 273 266 258 260 272 278 270 266 267 267 265 259 261 267 271 269 263 266
148 152 152 152 151 151 149 156 159 169 180 190 195 201 200 154 139 164 192 210 222 238 245 253 266 265 263 262 266 263 249 244 243 247 255 260 264 271 272 269 270 274 279
152 151 153 151 150 145 129 129 158 168 178 182 195 190 181 186 205 173 166 186 199 216 225 225 234 245 250 256 253 251 247 257 262 264 269 276 277 273 267 258 256 262 266
156 156 155 150 147 144 139 117 73 116 135 158 166 166 164 182 180 173 186 200 213 219 192 224 240 244 247 251 257 265 258 252 257 270 277 278 280 281 282 279 270 263 267
153 150 145 149 154 156 157 159 157 70 63 97 128 149 174 182 184 189 202 217 226 200 205 235 243 251 262 264 260 261 267 264 257 261 272 277 279 283 287 285 281 276 275
139 143 144 150 154 162 170 174 173 171 173 200 235 211 198 188 190 200 191 149 188 209 226 240 254 262 267 269 268 270 277 286 281 274 273 277 277 278 281 281 280 277 278
114 119 122 129 148 165 170 170 171 174 172 175 167 206 207 185 183 204 175 189 210 225 235 247 256 265 270 271 276 282 285 282 283 283 280 278 278 277 277 275 277 280 277
115 131 136 142 158 166 166 165 172 178 180 178 179 179 166 154 173 200 210 230 230 235 237 247 257 266 274 284 292 293 294 296 296 291 287 283 282 279 277 276 275 277 276
123 134 145 154 165 159 153 160 167 165 174 182 187 173 161 178 198 208 210 219 229 236 239 248 256 269 278 288 292 296 298 297 297 296 298 296 293 292 289 283 280 278 281
130 144 155 161 149 143 144 153 170 179 183 190 185 169 170 181 206 213 216 223 225 229 232 239 255 254 244 260 281 289 293 298 304 308 306 303 303 302 303 300 295 290 287
144 154 157 155 152 154 167 184 185 183 180 178 160 151 180 211 221 223 224 230 232 232 230 227 253 283 295 300 303 296 297 300 302 304 304 303 304 303 302 300 298 295 292
148 160 165 159 154 156 171 188 173 159 163 164 163 189 211 228 235 236 236 248 283 286 282 275 268 291 314 332 335 345 349 329 321 311 305 299 298 296 295 294 292 289 287
141 142 143 141 135 139 151 142 106 84 70 66 44 328 318 304 306 334 347 356 353 349 351 346 338 335 340 354 356 3 351 332 317 311 304 296 292 290 288 288 288 289 288
125 122 110 98 94 96 106 114 104 66 62 47 28 18 16 26 19 356 10 28 16 357 348 345 340 340 341 1 20 358 334 323 317 313 305 293 289 288 289 287 290 290 289